Wind_Speed
40 38 37 37 35 36 37 37 37 37 36 35 35 34 34 33 32 29 28 28 28 27 26 26 25 24 23 22 21 20 20 21 21 21 21 21 20 20 20 19 17 17
40 39 38 36 35 34 35 37 37 36 37 36 36 35 34 33 32 30 29 29 29 29 28 27 26 26 25 24 23 22 21 21 22 22 23 22 21 21 22 21 19 18
40 39 38 37 36 35 34 35 36 36 36 36 35 34 34 33 32 31 30 30 30 30 30 29 28 27 27 26 25 24 24 23 23 23 24 24 23 22 23 23 21 20
41 40 39 39 39 37 35 34 35 35 35 35 35 35 35 33 33 32 32 31 31 31 31 31 30 28 28 28 28 27 26 26 25 24 25 26 25 24 23 23 23 22
41 41 40 40 39 38 36 35 35 35 35 35 36 36 36 35 34 33 33 33 33 32 31 32 31 30 29 29 30 30 30 29 27 26 27 27 27 26 24 24 25 24
39 40 40 39 39 38 37 36 37 36 36 37 36 36 36 35 35 35 34 34 34 33 33 32 32 32 31 31 31 32 32 31 30 29 29 29 29 28 27 26 27 27
38 39 39 38 37 36 36 37 37 37 37 37 37 36 35 35 35 35 35 34 34 34 34 33 33 34 33 33 33 33 33 33 32 30 30 31 30 30 29 28 29 29
39 39 39 38 37 36 36 36 36 37 37 36 36 37 36 36 35 35 35 35 35 35 35 35 35 35 35 35 35 35 35 34 33 32 32 32 32 32 32 31 30 31
40 39 39 38 37 36 36 36 36 37 36 35 36 37 37 37 37 37 36 35 36 36 36 36 36 36 36 36 36 36 36 36 35 34 34 34 34 34 34 33 32 32
39 39 39 39 38 37 37 37 37 36 36 36 36 36 36 38 38 38 37 37 37 37 38 38 38 38 37 37 38 37 37 37 36 36 36 36 37 37 36 35 35 35
39 39 39 39 39 38 38 38 38 37 37 37 37 36 36 37 38 38 38 39 39 39 40 40 40 39 39 39 39 39 39 39 38 38 38 38 39 39 38 37 37 38
39 40 39 39 39 39 39 39 38 38 38 38 38 38 37 37 37 38 39 40 41 42 41 41 41 40 40 40 40 40 40 40 39 39 39 39 39 39 39 39 39 40
39 40 40 40 40 40 39 39 39 39 39 39 40 40 39 38 38 39 40 41 42 42 42 42 41 41 41 41 41 41 41 40 40 40 40 40 40 40 40 39 40 40
40 40 41 41 40 40 40 40 40 40 40 40 40 40 41 41 41 40 41 41 42 42 42 42 41 41 41 42 42 42 41 41 41 40 40 40 40 40 40 40 40 40
41 40 40 40 40 40 40 41 41 40 40 40 40 41 41 42 42 41 41 42 42 42 42 41 41 42 43 43 43 42 42 42 41 40 40 40 40 40 40 40 40 40
40 39 39 39 39 40 40 41 41 40 40 40 41 41 42 42 42 41 41 42 42 42 42 41 41 43 44 45 45 44 43 42 41 40 40 39 39 39 39 39 40 40
39 38 38 38 39 39 40 41 41 41 40 41 41 41 42 42 42 41 42 43 42 42 42 42 43 44 45 46 47 46 45 42 41 40 39 38 38 38 38 39 39 40
38 38 37 38 38 39 39 40 40 40 40 40 41 41 41 41 42 42 43 43 42 42 43 43 45 45 46 47 47 48 47 44 41 39 38 38 38 38 39 38 38 38
38 38 38 38 38 39 39 39 39 39 40 40 40 41 40 40 41 43 43 43 42 42 43 44 45 46 47 47 48 48 48 47 44 40 39 39 39 39 39 38 37 37
39 38 38 38 39 39 39 38 39 40 40 40 39 39 40 41 41 42 43 43 43 43 43 43 45 46 46 47 48 48 48 47 46 43 40 39 39 39 39 39 38 37
38 38 38 38 39 39 39 39 40 40 40 39 38 38 40 41 41 41 42 43 44 44 43 43 44 45 45 46 48 48 47 46 46 44 41 40 39 39 39 39 39 38
38 37 37 38 38 38 39 39 39 40 40 40 39 39 39 39 39 40 41 41 42 42 42 43 44 43 43 44 45 45 45 44 44 45 43 41 39 38 39 40 39 39
38 38 37 38 38 38 38 38 39 40 40 40 39 39 38 39 40 40 40 40 40 40 41 42 42 40 39 40 40 40 41 42 43 44 43 42 41 39 39 40 40 41
40 40 39 38 38 39 39 39 39 40 40 40 40 39 39 40 40 40 39 39 39 40 41 41 40 37 35 35 35 35 38 41 43 43 42 42 41 40 40 40 40 41
41 41 41 40 40 40 40 40 40 40 40 40 40 40 40 40 39 38 38 39 39 39 39 39 37 35 33 32 31 31 34 38 41 42 41 40 40 39 40 40 40 41
40 41 42 42 42 41 40 40 40 39 39 38 38 38 38 37 37 37 37 38 38 38 37 37 36 34 32 31 30 30 32 34 38 40 40 39 39 39 38 38 39 41
Wind_Direction
205 205 205 205 205 205 203 202 202 204 206 208 210 213 215 216 218 218 219 219 219 220 222 224 227 228 229 230 228 228 228 224 222 222 223 223 223 222 221 221 222 226
206 206 206 206 207 207 205 203 203 204 206 210 213 216 217 218 218 219 220 220 220 222 224 225 227 228 229 228 227 228 228 225 224 224 225 226 226 224 223 223 223 225
206 207 207 207 208 208 207 206 206 206 208 211 214 216 218 218 218 220 221 221 222 223 224 226 228 229 229 228 226 227 228 227 226 226 225 227 228 225 223 223 223 224
206 207 208 208 209 209 209 208 208 209 209 211 214 215 217 219 219 220 221 222 223 224 224 226 227 228 228 227 227 227 227 229 229 227 227 227 228 226 224 222 222 224
207 207 208 209 210 211 210 210 211 211 210 211 213 215 216 218 219 220 221 221 222 223 224 225 226 228 228 226 226 227 227 229 230 228 227 227 227 227 226 223 222 223
207 208 210 211 211 211 210 211 213 212 212 212 213 214 216 217 219 219 220 221 221 222 224 224 225 226 227 225 225 227 228 228 228 227 227 227 226 227 228 226 224 225
208 209 210 211 212 212 211 212 213 213 214 214 213 214 215 216 217 218 219 220 220 221 223 224 225 225 225 224 224 227 228 227 227 226 226 227 227 227 227 227 227 227
208 208 210 211 212 213 214 214 214 214 215 214 214 214 214 214 216 217 219 219 219 221 223 225 226 225 224 223 223 225 226 226 226 225 225 226 226 227 227 227 228 229
207 208 209 211 212 213 216 216 217 217 215 214 215 215 214 214 216 216 217 218 219 221 223 225 226 226 224 224 223 224 224 224 225 225 225 225 225 226 227 226 226 228
207 208 208 210 211 213 215 217 218 218 217 216 216 215 215 215 216 217 217 218 220 221 223 225 226 226 225 224 224 225 225 225 225 225 226 226 226 226 226 225 225 227
207 208 208 209 211 212 215 217 218 218 218 218 217 216 216 216 216 217 217 218 220 222 224 225 225 225 225 225 225 226 226 226 226 226 227 227 228 227 227 226 226 228
207 208 208 209 211 212 214 216 217 218 218 219 219 218 218 218 217 217 217 218 221 223 224 225 225 225 225 225 226 226 226 227 227 228 228 229 229 229 228 228 227 229
208 208 209 210 211 213 214 216 217 218 218 219 220 219 219 219 218 218 218 219 221 222 223 225 225 224 225 226 226 226 226 226 227 228 229 230 231 231 230 230 229 230
209 210 210 210 212 213 215 216 217 218 218 219 219 219 219 219 219 220 220 220 222 223 224 225 224 224 225 225 226 226 227 227 227 228 228 230 231 232 232 231 231 232
210 210 211 211 212 213 215 216 217 218 218 219 219 219 220 220 221 221 221 221 222 223 225 225 225 225 225 225 225 226 226 228 228 228 229 229 230 232 233 233 233 233
209 210 211 211 211 213 215 216 217 218 219 219 220 220 220 221 221 221 222 223 223 223 224 225 225 226 227 227 227 226 226 227 229 229 230 230 230 231 233 234 234 234
208 209 211 211 212 213 215 216 217 217 218 219 219 220 220 220 221 221 222 223 224 224 224 224 226 227 228 229 229 229 228 227 228 230 231 231 232 232 233 234 235 236
207 208 210 212 213 214 215 216 217 217 218 219 219 220 220 220 221 221 222 223 224 225 225 226 227 228 229 230 230 230 229 228 229 230 231 232 233 233 235 235 236 237
207 208 209 211 212 214 215 216 216 217 218 218 219 220 221 221 222 222 223 223 223 225 226 227 229 230 230 230 231 232 231 229 229 230 231 233 234 235 236 237 237 238
207 207 209 210 212 213 214 214 215 217 218 219 219 220 221 222 223 223 224 224 224 226 227 229 230 231 231 231 232 233 232 230 230 231 232 234 235 236 237 238 239 238
206 207 208 210 211 212 212 213 214 215 217 218 218 220 221 223 224 224 225 226 226 227 229 231 232 233 233 233 233 234 234 232 230 231 233 235 237 237 238 239 240 240
206 206 207 208 209 210 211 212 212 214 215 216 217 219 222 224 225 226 227 228 228 229 230 233 235 235 234 235 235 235 234 233 231 231 233 235 237 238 239 240 241 241
205 205 206 207 208 209 210 211 212 214 215 215 215 217 220 222 225 227 228 229 230 230 230 233 236 237 236 237 237 235 234 233 232 232 233 235 237 238 239 241 241 242
205 205 205 206 207 209 210 211 212 214 215 215 215 216 219 221 223 226 228 230 231 231 232 234 236 237 237 237 237 235 234 233 232 232 234 236 238 239 240 241 242 243
205 205 205 206 207 209 210 211 212 213 214 215 215 216 219 221 222 224 227 229 231 232 233 234 236 236 236 236 235 234 234 234 232 231 233 235 238 239 241 242 243 244
206 205 204 205 207 209 211 212 213 213 213 214 216 217 220 222 222 224 227 229 231 233 234 235 235 235 234 234 234 234 234 233 231 230 231 234 236 238 239 241 242 244
Height
796 799 801 803 805 806 807 809 811 814 816 817 819 821 822 825 827 829 830 831 833 834 836 837 839 840 841 843 844 845 846 847 847 848 848 849 850 851 851 852 853 853
794 797 799 801 803 805 806 808 809 811 813 815 817 819 821 823 825 827 828 830 831 833 834 836 837 838 840 841 842 843 844 845 846 847 847 848 849 849 850 851 852 852
791 794 796 798 800 802 804 806 808 810 811 813 815 818 819 821 823 825 827 828 829 831 832 834 835 837 838 839 841 842 842 843 844 845 846 846 847 848 848 849 850 851
788 791 793 795 797 800 802 804 806 808 810 812 813 815 817 819 821 823 825 826 827 829 830 832 833 835 836 837 839 840 840 841 842 843 844 844 845 846 847 848 848 849
785 788 790 793 795 797 800 802 804 806 807 809 811 813 815 817 819 820 822 824 825 827 828 830 831 833 834 835 836 837 838 839 840 841 842 842 843 844 845 846 846 847
783 786 788 791 793 795 797 799 801 803 804 806 808 810 812 814 816 818 820 821 823 825 826 827 829 830 832 833 834 835 835 837 838 839 840 840 841 842 843 844 844 844
780 783 785 788 791 793 795 796 798 800 802 804 806 808 809 811 813 815 817 819 820 822 823 825 826 827 829 830 831 832 833 834 835 836 837 838 839 840 840 841 842 842
776 779 783 785 788 791 793 794 796 797 800 802 804 805 807 809 810 812 814 816 818 819 820 821 823 824 826 827 828 829 830 831 833 834 835 835 836 837 837 838 839 839
773 776 779 782 784 787 789 792 794 795 798 800 801 803 804 806 808 809 811 813 814 816 817 818 819 821 823 824 825 826 827 828 830 830 831 832 832 833 834 835 836 836
770 773 775 778 780 783 786 788 791 793 796 797 798 800 802 803 805 806 808 810 811 813 814 815 816 817 819 820 821 823 824 825 826 827 828 828 828 829 830 832 832 833
766 769 771 773 776 779 782 785 788 790 793 794 796 798 799 800 802 803 805 806 807 809 810 811 812 814 815 817 818 819 820 821 822 823 824 824 825 826 827 828 829 829
762 764 767 769 772 775 778 781 784 786 789 791 792 794 796 797 799 800 801 802 803 804 806 807 808 810 812 813 814 815 816 818 819 819 820 821 822 823 824 825 825 826
758 760 762 765 768 771 774 777 780 782 784 787 789 791 792 794 795 796 797 798 799 801 802 803 805 807 808 809 811 812 813 814 815 816 817 818 819 819 821 822 822 823
753 756 758 760 764 767 770 773 775 778 780 783 785 787 788 790 791 792 794 795 796 797 798 800 802 803 804 805 807 808 809 810 811 812 813 814 815 816 817 818 819 820
749 752 754 756 760 762 765 769 771 774 777 779 781 782 784 786 787 789 790 791 792 794 795 797 798 799 799 801 802 804 805 806 807 809 810 811 812 812 813 814 815 816
744 747 750 753 755 758 761 764 767 771 773 775 777 778 780 782 783 785 786 787 788 790 791 793 793 794 795 796 797 799 801 803 804 805 806 808 808 809 810 811 812 813
740 743 746 749 751 755 757 760 763 766 769 771 773 774 776 778 779 781 782 782 784 785 787 787 788 789 790 792 793 795 797 799 801 802 803 804 805 806 806 807 808 809
736 739 742 745 748 751 754 757 760 763 765 767 769 770 772 774 775 776 777 778 780 781 782 782 782 784 786 787 789 791 793 796 797 799 800 801 802 802 803 804 805 806
732 734 737 740 743 747 750 754 757 759 761 763 765 767 770 770 771 772 772 774 775 776 776 777 778 779 781 783 785 787 789 792 794 795 796 797 798 798 799 800 801 803
727 730 733 736 739 743 746 749 752 754 756 759 762 764 765 766 767 768 768 770 770 771 772 773 773 774 776 779 780 783 785 788 791 792 793 793 794 795 796 797 797 799
723 726 729 732 735 739 741 744 746 749 752 755 757 759 760 761 763 764 764 765 766 767 768 768 768 770 773 775 776 779 782 785 788 789 789 790 790 792 792 793 794 795
719 722 725 728 731 734 736 739 742 744 746 749 752 754 756 758 759 760 760 761 763 764 765 764 765 767 770 771 774 777 780 783 784 785 786 786 787 788 789 789 790 790
715 718 721 724 727 729 731 734 737 739 741 744 747 749 750 752 753 754 756 757 759 760 761 760 762 765 767 769 771 775 778 780 781 781 781 782 782 784 784 784 785 786
710 713 716 719 721 724 726 729 732 734 737 739 741 743 744 746 748 750 752 753 754 755 756 757 759 762 765 766 769 772 774 775 776 777 777 777 778 779 780 780 781 781
705 707 710 713 716 718 721 724 726 729 731 733 736 737 739 741 743 745 747 747 749 751 752 754 756 759 761 763 765 768 769 770 772 772 772 773 774 775 775 775 776 776
700 702 705 707 710 713 716 719 721 724 727 729 731 733 735 737 739 741 742 743 745 747 749 750 752 755 757 759 761 763 764 766 767 767 767 768 769 769 770 770 771 771